Location: Harwich
(41.7160°N, 69.9939°W)
Time: 13:26:14
(UTC+02:00)

RS-44 - Visible Passes

Search period start: 17 September 2024 00:00
Search period end: 27 September 2024 00:00
Orbit: 1175 x 1510 km, 82.5° (Epoch: 16 September)

Date Brightness Start Highest point End Pass type
(mag) Time Alt. Az. Time Alt. Az. Time Alt. Az.
17 Sep ? 08:59:30 11° SSE 09:07:01 38° E 09:14:43 10° NNE visible
17 Sep ? 10:52:11 12° SSW 11:00:12 51° WNW 11:08:34 10° N visible
18 Sep ? 09:24:16 20° SSE 09:30:33 57° E 09:38:54 10° NNE visible
18 Sep ? 11:16:57 12° SW 11:24:20 34° WNW 11:31:57 10° N visible
19 Sep ? 07:56:56 10° ESE 08:02:02 17° ENE 08:07:02 10° NE visible
19 Sep ? 09:48:56 29° S 09:54:14 84° E 10:02:51 10° N visible
19 Sep ? 11:42:07 10° WSW 11:48:38 22° WNW 11:55:01 10° NNW visible
20 Sep ? 08:20:51 18° ESE 08:25:17 27° E 08:32:05 10° NNE visible
20 Sep ? 10:13:30 32° SSW 10:18:03 68° W 10:26:35 10° N visible
21 Sep ? 08:45:20 31° SE 08:48:42 42° E 08:56:31 10° NNE visible
21 Sep ? 10:37:58 29° SW 10:42:02 45° WNW 10:50:08 10° N visible
22 Sep ? 07:18:27 10° E 07:20:30 11° ENE 07:22:31 10° ENE visible
22 Sep ? 09:09:45 47° SSE 09:12:16 63° E 09:20:38 10° NNE visible
22 Sep ? 11:02:23 22° WSW 11:06:11 30° WNW 11:13:27 10° N visible
23 Sep ? 07:41:27 17° E 07:43:37 19° ENE 07:49:06 10° NE visible
23 Sep ? 09:34:05 61° S 09:35:59 88° W 09:44:30 10° N visible
23 Sep ? 11:26:44 15° W 11:30:33 20° WNW 11:36:20 10° NNW visible
24 Sep ? 08:05:44 29° E 08:06:55 30° E 08:13:56 10° NNE visible
24 Sep ? 09:58:23 54° WSW 09:59:51 61° WNW 10:08:11 10° N visible
24 Sep ? 11:52:11 10° WNW 11:55:08 12° WNW 11:58:02 10° NW visible
25 Sep ? 08:29:59 46° E 08:30:23 46° E 08:38:16 10° NNE visible
25 Sep ? 10:22:37 38° W 10:23:52 40° WNW 10:31:40 10° N visible
26 Sep ? 07:01:33 13° ENE 07:02:02 13° ENE 07:05:17 10° NE visible
26 Sep ? 08:54:11 70° E 08:54:11 70° E 09:02:18 10° NNE visible
26 Sep ? 10:46:49 26° W 10:48:03 27° WNW 10:54:52 10° NNW visible
